Location: Marquette
(46.5440°N, 87.3950°W)
Time: 17:28:49
(UTC-04:00)

Daily predictions for brighter satellites

Satellite Brightness Start Highest point End
(mag) Time Altitude Azimuth Time Altitude Azimuth Time Altitude Azimuth
Meteor 1-11 Rocket 3.8 21:09:39 10° S 21:15:21 61° E 21:20:57 10° NNE
Okean 2 Rocket 4.2 21:15:30 10° SSW 21:19:52 51° WNW 21:24:19 10° N
SeaSat 1 3.3 21:16:56 10° NE 21:21:07 27° ESE 21:25:16 10° SSE
SJ-6B 4.4 21:17:20 10° SSW 21:21:11 40° W 21:25:07 10° NNW
Meteor 1-23 Rocket 4.4 21:18:27 10° N 21:23:56 55° ENE 21:29:24 10° SSE
Abrixas rocket 2.4 21:20:46 10° WNW 21:24:02 66° N 21:27:19 10° E
Cosmos 2360 Rocket 2.7 21:20:02 10° S 21:25:05 35° ESE 21:30:10 10° NE
Okean 2 4.4 21:21:59 10° NNE 21:25:32 28° ENE 21:29:05 10° SE
Cosmos 1980 Rocket 3.8 21:21:05 10° WSW 21:26:18 39° NW 21:31:34 10° NNE
Cosmos 1850 Rocket 4.4 21:21:41 10° NNW 21:27:01 72° WSW 21:32:16 10° SSE
Cosmos 1420 Rocket 4.3 21:22:39 10° SSW 21:27:49 75° WNW 21:33:03 10° NNE
Cosmos 1452 Rocket 4.5 21:23:29 10° SW 21:28:39 54° WNW 21:33:52 10° NNE
Cosmos 839 Rocket 4.4 21:24:37 10° SW 21:30:47 70° NW 21:37:14 10° NNE
COSMOS 2428 4.0 21:30:16 10° SE 21:34:14 20° E 21:38:14 10° NE
Cosmos 220 Rocket 4.0 21:32:34 10° NNW 21:36:54 86° ENE 21:41:16 10° SSE
Resurs 1-3 4.1 21:35:12 10° S 21:39:32 62° WSW 21:43:55 10° NNW
Cosmos 883 Rocket 4.5 21:36:54 10° N 21:43:02 73° E 21:49:11 10° SSE
USA 215 4.3 21:37:04 10° NE 21:43:17 47° NNW 21:49:30 10° W
NOSS 2-3 (C) 4.0 21:39:18 10° SW 21:44:04 89° NW 21:49:47 10° NE
CZ-4B DEB 3.8 21:42:43 16° ESE 21:44:13 24° ENE 21:46:37 10° NNE
Cosmos 1025 Rocket 3.1 21:42:13 10° N 21:46:25 54° ENE 21:50:36 10° SSE
Meteor 1-5 Rocket 4.0 21:41:45 10° S 21:47:00 65° E 21:52:16 10° NNE
Cosmos 1607 4.5 21:40:50 10° NW 21:47:13 63° WSW 21:53:34 10° SSE
Cosmos 2333 Rocket 3.9 21:47:11 12° E 21:47:22 12° E 21:49:15 10° ENE
Cosmos 1300 Rocket 3.6 21:46:54 10° SSW 21:51:13 80° W 21:55:33 10° N
NOSS 3-2 (A) 4.4 21:44:06 10° NW 21:51:14 52° NE 21:57:47 15° ESE
USA 186 3.2 21:48:47 10° S 21:51:58 40° W 21:55:10 10° NNW
Cosmos 1536 3.0 21:48:05 10° SSW 21:52:09 78° W 21:56:14 10° N
Okean 1 Rocket 3.0 21:49:58 10° S 21:54:18 75° E 21:58:42 10° NNE
USA 238 DEB 3.8 21:47:53 10° NW 21:55:00 80° NE 22:01:04 15° SE
USA 238 3.8 21:47:58 10° NW 21:55:06 80° NE 22:01:10 15° SE
Meteor 2-4 Rocket 4.3 21:49:53 10° NNW 21:55:23 62° W 22:01:01 10° S
Cosmos 1939 Rocket 2.9 21:52:30 10° S 21:56:27 80° WSW 22:00:23 10° NNW
Tiangong 1 3.5 21:56:09 10° SW 21:56:40 10° SSW 21:57:10 10° SSW
Spot 2 Rocket 4.4 21:53:11 10° S 21:58:07 48° W 22:03:03 10° NNW
ATLAS 3B R/B 2.7 21:57:48 10° NW 22:04:37 82° SW 22:09:58 16° SSE
Helios 1A 2.9 22:01:07 12° SSE 22:05:00 80° ENE 22:09:16 10° NNW
Cosmos 1238 Rocket 4.3 21:58:52 10° N 22:05:25 51° ENE 22:10:05 17° SE
SL-8 R/B 3.9 22:01:29 10° WNW 22:06:12 61° SSW 22:09:14 22° SE
Cosmos 1818 4.2 22:04:00 10° S 22:08:48 33° ESE 22:13:39 10° NE
ERS-1 Rocket 3.1 22:06:57 18° SE 22:10:33 56° ENE 22:15:28 10° N
Cosmos 1066 Rocket 4.5 22:06:48 10° N 22:12:04 49° ENE 22:15:32 21° SE
Okean 1-7 Rocket 3.6 22:08:14 10° N 22:12:46 85° W 22:16:59 12° S
YAOGAN 6 2.8 22:10:08 13° S 22:13:17 68° W 22:16:48 10° NNW
Molniya-1 3.6 22:11:31 10° NW 22:14:10 77° NE 22:15:39 31° SE
ARGOS 3.5 22:12:31 21° SE 22:15:48 47° ENE 22:20:57 10° N
EXPRESS MD2 3.6 22:14:30 10° W 22:17:23 63° N 22:22:48 10° ENE
SL-08 RB Rocket 4.5 22:15:40 24° ESE 22:17:39 35° ENE 22:21:46 10° N
Meteor 1-29 3.0 22:15:56 10° NNE 22:19:17 51° E 22:20:46 28° SSE
BREEZE-M DEB (TANK) 1.1 22:17:52 10° WSW 22:20:29 73° NNW 22:20:55 47° NE
Resurs 01 Rocket 3.9 22:17:17 10° SSW 22:20:49 23° W 22:24:23 10° NW
Cosmos 2266 Rocket 4.4 22:15:00 10° SSW 22:20:58 63° WNW 22:26:59 10° N
BREEZE-M DEB (TANK) 3.3 22:21:28 10° WSW 22:24:57 84° SSE 22:37:01 10° ENE
Cosmos 2263 Rocket 4.0 22:22:25 10° NW 22:27:13 28° WSW 22:31:58 10° SSW
Aureole 3 Rocket 4.3 22:19:02 10° N 22:27:27 70° ENE 22:31:40 22° SSE
Cosmos 1743 3.8 22:29:25 27° E 22:29:25 27° E 22:32:27 10° NNE
NOSS 3-2 (C) 4.1 22:24:29 10° NW 22:31:50 65° NE 22:36:46 25° ESE
Cosmos 2315 Rocket 4.4 22:27:06 10° NNW 22:33:18 66° W 22:39:31 10° S
USA 245 3.8 22:31:48 32° SE 22:33:34 53° ENE 22:37:20 10° N
SPOT 5 3.1 22:31:51 31° SE 22:33:44 50° ENE 22:38:09 10° N
Cosmos 1844 Rocket 2.7 22:28:02 10° NNW 22:33:46 80° ENE 22:36:50 29° SSE
Cosmos 2278 Rocket 3.0 22:30:30 10° NNW 22:35:46 37° NE 22:38:10 26° E
Lacrosse 5 2.4 22:31:40 10° WSW 22:36:42 60° NNW 22:41:44 10° NE
Cosmos 2322 Rocket 4.1 22:32:54 10° WSW 22:37:58 32° NW 22:43:04 10° NNE
Cosmos 1626 Rocket 4.4 22:35:29 10° N 22:39:24 32° ENE 22:39:56 31° E
Helios 1B rocket 2.6 22:35:54 10° N 22:40:01 72° WNW 22:44:05 10° SSW
MetOp-B 4.1 22:37:45 25° SSE 22:40:57 87° ENE 22:46:21 10° NNW
Cosmos 1892 Rocket 3.5 22:39:27 10° N 22:43:54 84° W 22:45:55 32° S
H-2A R/B 2.1 22:46:54 38° SE 22:48:39 59° ENE 22:53:31 10° N
Cosmos 2237 4.2 22:43:46 10° SSW 22:49:28 83° WNW 22:55:13 10° NNE
Cosmos 1302 Rocket 3.9 22:44:25 10° SSW 22:49:43 89° ESE 22:55:01 10° NNE
Landsat 7 4.5 22:48:56 35° E 22:49:56 39° ENE 22:54:22 10° N
ATLAS 2AS CENTAUR R/B 3.6 22:43:15 10° SW 22:51:00 61° NW 22:59:07 10° NE
CENTAUR R/B 3.7 22:44:25 10° NW 22:51:41 45° NE 22:56:35 23° E
SL-16 R/B 4.4 22:47:07 10° WSW 22:51:51 27° NW 22:56:36 10° N
Cosmos 2219 Rocket 2.4 22:50:02 31° SSE 22:52:20 48° ESE 22:57:46 10° NE
Cosmos 1486 Rocket 4.4 22:48:13 10° NNW 22:53:23 61° WSW 22:56:04 28° S
Cosmos 1745 Rocket 4.0 22:50:53 29° SSE 22:53:58 61° E 23:00:03 10° NNE
Cosmos 1500 4.0 22:54:32 17° SSW 22:57:22 51° WNW 23:01:10 10° N
SeaSat 1 3.4 22:54:04 10° NNE 22:58:50 49° NW 23:03:33 10° SW
Cosmos 1544 Rocket 3.5 22:57:19 34° S 22:59:15 88° W 23:03:44 10° N
Abrixas rocket 3.2 22:57:33 10° W 23:00:06 39° WSW 23:00:06 39° WSW
NOSS 3-4 (A) 3.6 22:56:26 14° S 23:01:35 49° ESE 23:07:48 10° NE
NOSS 3-4 (C) 3.6 22:57:09 18° S 23:01:41 49° ESE 23:07:54 10° NE
Cosmos 405 3.8 23:01:07 26° SW 23:02:49 50° WNW 23:06:20 10° N
Aureole 2 Rocket 3.8 23:05:19 27° NNE 23:05:19 27° NNE 23:06:54 10° NNE
Terra 2.4 23:04:46 38° E 23:05:17 39° ENE 23:09:43 10° N
Cosmos 2360 Rocket 3.5 23:03:44 10° SW 23:09:01 41° NW 23:14:20 10° NNE
SL-16 R/B 4.3 23:11:39 12° ENE 23:11:39 12° ENE 23:12:24 10° ENE
Cosmos 1975 3.5 23:09:21 27° SW 23:11:13 51° WNW 23:15:08 10° N
Cosmos 1455 Rocket 3.2 23:09:49 40° SSW 23:11:23 76° W 23:15:53 10° N
Cosmos 1386 Rocket 4.4 23:11:06 40° SSE 23:13:24 68° E 23:19:41 10° NNE
GP-B 3.5 23:12:19 10° NNE 23:16:18 48° ENE 23:16:18 48° ENE
COSMOS 2428 2.9 23:12:11 10° SW 23:17:54 71° WNW 23:23:39 10° NNE
Cosmos 1844 4.0 23:13:15 10° NNW 23:18:51 61° WSW 23:20:44 40° S
Cosmos 2333 Rocket 2.0 23:29:06 50° S 23:30:38 78° ESE 23:36:18 10° NNE
BREEZE M DEB (TANK) 4.0 23:29:37 10° WSW 23:32:14 25° WSW 23:32:14 25° WSW
Cosmos 1437 Rocket 3.5 23:36:51 48° W 23:37:06 49° WNW 23:40:57 10° N
Cosmos 2369 Rocket 4.4 23:36:58 10° N 23:40:05 15° NE 23:42:41 11° ENE
Nadezhda 1 Rocket 4.4 23:34:03 10° NNW 23:40:17 61° W 23:42:45 37° SSW
Cosmos 2237 Rocket 2.1 23:42:11 66° ESE 23:42:11 66° ESE 23:47:38 10° NNE
Cosmos 1666 3.5 23:42:52 50° NW 23:42:52 50° NW 23:46:16 10° N
CARTOSAT-1 3.7 23:44:39 71° NNW 23:44:39 71° NNW 23:48:32 10° NNW
Spot 4 4.4 23:45:28 45° NE 23:45:28 45° NE 23:49:38 10° N
DMSP B5D2-2 4.0 23:42:44 10° NNE 23:48:02 85° WNW 23:48:40 70° SSW
Nimbus 7 Rocket 4.4 23:43:00 10° NNE 23:48:53 78° WNW 23:50:48 45° SSW
Cosmos 1980 3.5 23:48:45 75° SSE 23:49:09 81° ESE 23:54:52 10° NNE
SPOT 1/Viking Rocket 4.3 23:49:27 38° SW 23:50:35 44° W 23:55:36 10° NNW
Cosmos 972 Rocket 4.1 23:51:59 75° SE 23:52:13 76° ESE 23:58:24 10° NNE
Meteor 1-15 Rocket 4.3 23:53:26 62° E 23:53:26 62° E 23:59:12 10° NNE
Cosmos 1602 Rocket 4.4 23:50:17 10° NNW 23:54:18 44° W 23:54:18 44° W
